owner,sensor,date,latitude,longitude,vertical_datum,sea_water_temperature,qcFlag
Shell,ioos:station:wmo:42873:2,2021-11-01T00:00:00Z,28.1860,-89.1790,10.6,28.4,11111222
Shell,ioos:station:wmo:42873:2,2021-11-01T00:10:00Z,28.1860,-89.1790,10.6,28.4,11111222
Shell,ioos:station:wmo:42873:2,2021-11-01T00:20:00Z,28.1860,-89.1790,10.5,28.4,11111222
Shell,ioos:station:wmo:42873:2,2021-11-01T00:30:00Z,28.1860,-89.1790,10.5,28.4,11111222
Shell,ioos:station:wmo:42873:2,2021-11-01T00:40:00Z,28.1860,-89.1790,10.6,28.4,11111222
Shell,ioos:station:wmo:42873:2,2021-11-01T00:50:00Z,28.1860,-89.1790,10.6,28.4,11111222
Shell,ioos:station:wmo:42873:2,2021-11-01T01:00:00Z,28.1860,-89.1790,10.5,28.5,11111222
Shell,ioos:station:wmo:42873:2,2021-11-01T01:10:00Z,28.1860,-89.1790,10.5,28.5,11111222
Shell,ioos:station:wmo:42873:2,2021-11-01T01:20:00Z,28.1860,-89.1790,10.5,28.5,11111222
Shell,ioos:station:wmo:42873:2,2021-11-01T01:30:00Z,28.1860,-89.1790,10.5,28.5,11111222
Shell,ioos:station:wmo:42873:2,2021-11-01T01:40:00Z,28.1860,-89.1790,10.6,28.5,11111222
Shell,ioos:station:wmo:42873:2,2021-11-01T01:50:00Z,28.1860,-89.1790,10.6,28.5,11111222
Shell,ioos:station:wmo:42873:2,2021-11-01T02:00:00Z,28.1860,-89.1790,10.6,28.5,11111222
Shell,ioos:station:wmo:42873:2,2021-11-01T02:10:00Z,28.1860,-89.1790,10.6,28.5,11111222
Shell,ioos:station:wmo:42873:2,2021-11-01T02:21:00Z,28.1860,-89.1790,10.5,28.5,11111222
Shell,ioos:station:wmo:42873:2,2021-11-01T02:31:00Z,28.1860,-89.1790,10.4,28.5,11111222
Shell,ioos:station:wmo:42873:2,2021-11-01T02:41:00Z,28.1860,-89.1790,10.4,28.5,11111222
Shell,ioos:station:wmo:42873:2,2021-11-01T02:51:00Z,28.1860,-89.1790,10.4,28.5,11111222
Shell,ioos:station:wmo:42873:2,2021-11-01T03:01:00Z,28.1860,-89.1790,10.3,28.5,11111222
Shell,ioos:station:wmo:42873:2,2021-11-01T03:11:00Z,28.1860,-89.1790,10.3,28.5,11111222
Shell,ioos:station:wmo:42873:2,2021-11-01T03:21:00Z,28.1860,-89.1790,10.3,28.5,11111222
Shell,ioos:station:wmo:42873:2,2021-11-01T03:31:00Z,28.1860,-89.1790,10.3,28.5,11111222
Shell,ioos:station:wmo:42873:2,2021-11-01T03:41:00Z,28.1860,-89.1790,10.3,28.5,11111222
Shell,ioos:station:wmo:42873:2,2021-11-01T03:51:00Z,28.1860,-89.1790,10.3,28.5,11111222
Shell,ioos:station:wmo:42873:2,2021-11-01T04:01:00Z,28.1860,-89.1790,10.3,28.5,11111222
Shell,ioos:station:wmo:42873:2,2021-11-01T04:11:00Z,28.1860,-89.1790,10.3,28.5,11111222
Shell,ioos:station:wmo:42873:2,2021-11-01T04:21:00Z,28.1860,-89.1790,10.3,28.5,11111222
Shell,ioos:station:wmo:42873:2,2021-11-01T04:31:00Z,28.1860,-89.1790,10.3,28.5,11111222
Shell,ioos:station:wmo:42873:2,2021-11-01T04:41:00Z,28.1860,-89.1790,10.4,28.5,11111222
Shell,ioos:station:wmo:42873:2,2021-11-01T04:51:00Z,28.1860,-89.1790,10.4,28.5,11111222
Shell,ioos:station:wmo:42873:2,2021-11-01T05:01:00Z,28.1860,-89.1790,10.4,28.5,11111222
Shell,ioos:station:wmo:42873:2,2021-11-01T05:11:00Z,28.1860,-89.1790,10.4,28.5,11111222
Shell,ioos:station:wmo:42873:2,2021-11-01T05:21:00Z,28.1860,-89.1790,10.3,28.5,11111222
Shell,ioos:station:wmo:42873:2,2021-11-01T05:31:00Z,28.1860,-89.1790,10.4,28.5,11111222
Shell,ioos:station:wmo:42873:2,2021-11-01T05:41:00Z,28.1860,-89.1790,10.4,28.5,11111222
Shell,ioos:station:wmo:42873:2,2021-11-01T05:51:00Z,28.1860,-89.1790,10.4,28.5,11111222
Shell,ioos:station:wmo:42873:2,2021-11-01T06:01:00Z,28.1860,-89.1790,10.4,28.5,11111222
Shell,ioos:station:wmo:42873:2,2021-11-01T06:11:00Z,28.1860,-89.1790,10.3,28.5,11111222
Shell,ioos:station:wmo:42873:2,2021-11-01T06:21:00Z,28.1860,-89.1790,10.4,28.5,11111222
Shell,ioos:station:wmo:42873:2,2021-11-01T06:31:00Z,28.1860,-89.1790,10.4,28.5,11111222
Shell,ioos:station:wmo:42873:2,2021-11-01T06:41:00Z,28.1860,-89.1790,10.4,28.5,11111222
Shell,ioos:station:wmo:42873:2,2021-11-01T06:51:00Z,28.1860,-89.1790,10.4,28.5,11111222
Shell,ioos:station:wmo:42873:2,2021-11-01T07:01:00Z,28.1860,-89.1790,10.6,28.5,11111222
Shell,ioos:station:wmo:42873:2,2021-11-01T07:11:00Z,28.1860,-89.1790,10.6,28.5,11111222
Shell,ioos:station:wmo:42873:2,2021-11-01T07:21:00Z,28.1860,-89.1790,10.7,28.5,11111222
Shell,ioos:station:wmo:42873:2,2021-11-01T07:31:00Z,28.1860,-89.1790,10.7,28.5,11111222
Shell,ioos:station:wmo:42873:2,2021-11-01T07:41:00Z,28.1860,-89.1790,10.8,28.5,11111222
Shell,ioos:station:wmo:42873:2,2021-11-01T07:51:00Z,28.1860,-89.1790,10.8,28.5,11111222
Shell,ioos:station:wmo:42873:2,2021-11-01T08:01:00Z,28.1860,-89.1790,10.9,28.5,11111222
Shell,ioos:station:wmo:42873:2,2021-11-01T08:11:00Z,28.1860,-89.1790,10.9,28.5,11111222
Shell,ioos:station:wmo:42873:2,2021-11-01T08:21:00Z,28.1860,-89.1790,10.9,28.5,11111222
Shell,ioos:station:wmo:42873:2,2021-11-01T08:31:00Z,28.1860,-89.1790,10.9,28.5,11111222
Shell,ioos:station:wmo:42873:2,2021-11-01T08:41:00Z,28.1860,-89.1790,10.9,28.5,11111222
Shell,ioos:station:wmo:42873:2,2021-11-01T08:51:00Z,28.1860,-89.1790,10.8,28.5,11111222
Shell,ioos:station:wmo:42873:2,2021-11-01T09:01:00Z,28.1860,-89.1790,10.8,28.5,11111222
Shell,ioos:station:wmo:42873:2,2021-11-01T09:11:00Z,28.1860,-89.1790,10.8,28.5,11111222
Shell,ioos:station:wmo:42873:2,2021-11-01T09:21:00Z,28.1860,-89.1790,10.8,28.5,11111222
Shell,ioos:station:wmo:42873:2,2021-11-01T09:31:00Z,28.1860,-89.1790,10.8,28.5,11111222
Shell,ioos:station:wmo:42873:2,2021-11-01T09:41:00Z,28.1860,-89.1790,10.8,28.5,11111222
Shell,ioos:station:wmo:42873:2,2021-11-01T09:52:00Z,28.1860,-89.1790,10.8,28.5,11111222
Shell,ioos:station:wmo:42873:2,2021-11-01T10:02:00Z,28.1860,-89.1790,10.8,28.5,11111222
Shell,ioos:station:wmo:42873:2,2021-11-01T10:12:00Z,28.1860,-89.1790,10.8,28.5,11111222
Shell,ioos:station:wmo:42873:2,2021-11-01T10:22:00Z,28.1860,-89.1790,10.9,28.4,11111222
Shell,ioos:station:wmo:42873:2,2021-11-01T10:32:00Z,28.1860,-89.1790,10.9,28.4,11111222
Shell,ioos:station:wmo:42873:2,2021-11-01T10:42:00Z,28.1860,-89.1790,10.8,28.4,11111222
Shell,ioos:station:wmo:42873:2,2021-11-01T10:52:00Z,28.1860,-89.1790,10.9,28.4,11111222
Shell,ioos:station:wmo:42873:2,2021-11-01T11:02:00Z,28.1860,-89.1790,10.8,28.4,11111222
Shell,ioos:station:wmo:42873:2,2021-11-01T11:12:00Z,28.1860,-89.1790,10.7,28.4,11111222
Shell,ioos:station:wmo:42873:2,2021-11-01T11:22:00Z,28.1860,-89.1790,10.8,28.4,11111222
Shell,ioos:station:wmo:42873:2,2021-11-01T11:32:00Z,28.1860,-89.1790,10.7,28.4,11111222
Shell,ioos:station:wmo:42873:2,2021-11-01T11:42:00Z,28.1860,-89.1790,10.6,28.4,11111222
Shell,ioos:station:wmo:42873:2,2021-11-01T11:52:00Z,28.1860,-89.1790,10.6,28.4,11111222
Shell,ioos:station:wmo:42873:2,2021-11-01T12:02:00Z,28.1860,-89.1790,10.7,28.4,11111222
Shell,ioos:station:wmo:42873:2,2021-11-01T12:12:00Z,28.1860,-89.1790,10.7,28.4,11111222
Shell,ioos:station:wmo:42873:2,2021-11-01T12:22:00Z,28.1860,-89.1790,10.8,28.4,11111222
Shell,ioos:station:wmo:42873:2,2021-11-01T12:32:00Z,28.1860,-89.1790,10.9,28.4,11111222
Shell,ioos:station:wmo:42873:2,2021-11-01T12:42:00Z,28.1860,-89.1790,10.7,28.4,11111222
Shell,ioos:station:wmo:42873:2,2021-11-01T12:52:00Z,28.1860,-89.1790,10.7,28.4,11111222
Shell,ioos:station:wmo:42873:2,2021-11-01T13:02:00Z,28.1860,-89.1790,10.7,28.4,11111222
Shell,ioos:station:wmo:42873:2,2021-11-01T13:12:00Z,28.1860,-89.1790,10.7,28.4,11111222
Shell,ioos:station:wmo:42873:2,2021-11-01T13:22:00Z,28.1860,-89.1790,10.7,28.4,11111222
Shell,ioos:station:wmo:42873:2,2021-11-01T13:32:00Z,28.1860,-89.1790,10.7,28.4,11111222
Shell,ioos:station:wmo:42873:2,2021-11-01T13:42:00Z,28.1860,-89.1790,10.7,28.4,11111222
Shell,ioos:station:wmo:42873:2,2021-11-01T13:52:00Z,28.1860,-89.1790,10.6,28.4,11111222
Shell,ioos:station:wmo:42873:2,2021-11-01T14:02:00Z,28.1860,-89.1790,10.5,28.4,11111222
Shell,ioos:station:wmo:42873:2,2021-11-01T14:12:00Z,28.1860,-89.1790,10.7,28.4,11111222
Shell,ioos:station:wmo:42873:2,2021-11-01T14:22:00Z,28.1860,-89.1790,10.7,28.4,11111222
Shell,ioos:station:wmo:42873:2,2021-11-01T14:32:00Z,28.1860,-89.1790,10.7,28.4,11111222
Shell,ioos:station:wmo:42873:2,2021-11-01T14:42:00Z,28.1860,-89.1790,10.7,28.4,11111222
Shell,ioos:station:wmo:42873:2,2021-11-01T14:52:00Z,28.1860,-89.1790,10.8,28.4,11111222
Shell,ioos:station:wmo:42873:2,2021-11-01T15:02:00Z,28.1860,-89.1790,10.8,28.4,11111222
Shell,ioos:station:wmo:42873:2,2021-11-01T15:12:00Z,28.1860,-89.1790,10.8,28.4,11111222
Shell,ioos:station:wmo:42873:2,2021-11-01T15:22:00Z,28.1860,-89.1790,10.8,28.4,11111222
Shell,ioos:station:wmo:42873:2,2021-11-01T15:32:00Z,28.1860,-89.1790,10.8,28.4,11111222
Shell,ioos:station:wmo:42873:2,2021-11-01T15:42:00Z,28.1860,-89.1790,10.7,28.4,11111222
Shell,ioos:station:wmo:42873:2,2021-11-01T15:52:00Z,28.1860,-89.1790,10.7,28.4,11111222
Shell,ioos:station:wmo:42873:2,2021-11-01T16:02:00Z,28.1860,-89.1790,10.6,28.4,11111222
Shell,ioos:station:wmo:42873:2,2021-11-01T16:12:00Z,28.1860,-89.1790,10.7,28.4,11111222
Shell,ioos:station:wmo:42873:2,2021-11-01T16:22:00Z,28.1860,-89.1790,10.6,28.4,11111222
Shell,ioos:station:wmo:42873:2,2021-11-01T16:32:00Z,28.1860,-89.1790,10.6,28.5,11111222
Shell,ioos:station:wmo:42873:2,2021-11-01T16:42:00Z,28.1860,-89.1790,10.6,28.5,11111222
Shell,ioos:station:wmo:42873:2,2021-11-01T16:52:00Z,28.1860,-89.1790,10.7,28.5,11111222
Shell,ioos:station:wmo:42873:2,2021-11-01T17:14:00Z,28.1860,-89.1790,10.7,28.4,11111222
Shell,ioos:station:wmo:42873:2,2021-11-01T17:24:00Z,28.1860,-89.1790,10.7,28.4,11111222
Shell,ioos:station:wmo:42873:2,2021-11-01T17:34:00Z,28.1860,-89.1790,10.6,28.4,11111222
Shell,ioos:station:wmo:42873:2,2021-11-01T17:44:00Z,28.1860,-89.1790,10.6,28.5,11111222
Shell,ioos:station:wmo:42873:2,2021-11-01T17:54:00Z,28.1860,-89.1790,10.6,28.5,11111222
Shell,ioos:station:wmo:42873:2,2021-11-01T18:04:00Z,28.1860,-89.1790,10.6,28.5,11111222
Shell,ioos:station:wmo:42873:2,2021-11-01T18:14:00Z,28.1860,-89.1790,10.6,28.5,11111222
Shell,ioos:station:wmo:42873:2,2021-11-01T18:24:00Z,28.1860,-89.1790,10.6,28.5,11111222
Shell,ioos:station:wmo:42873:2,2021-11-01T18:34:00Z,28.1860,-89.1790,10.6,28.5,11111222
Shell,ioos:station:wmo:42873:2,2021-11-01T18:44:00Z,28.1860,-89.1790,10.6,28.5,11111222
Shell,ioos:station:wmo:42873:2,2021-11-01T18:54:00Z,28.1860,-89.1790,10.7,28.4,11111222
Shell,ioos:station:wmo:42873:2,2021-11-01T19:04:00Z,28.1860,-89.1790,10.6,28.4,11111222
Shell,ioos:station:wmo:42873:2,2021-11-01T19:14:00Z,28.1860,-89.1790,10.5,28.5,11111222
Shell,ioos:station:wmo:42873:2,2021-11-01T19:24:00Z,28.1860,-89.1790,10.5,28.5,11111222
Shell,ioos:station:wmo:42873:2,2021-11-01T19:34:00Z,28.1860,-89.1790,10.5,28.5,11111222
Shell,ioos:station:wmo:42873:2,2021-11-01T19:44:00Z,28.1860,-89.1790,10.5,28.5,11111222
Shell,ioos:station:wmo:42873:2,2021-11-01T19:54:00Z,28.1860,-89.1790,10.6,28.5,11111222
Shell,ioos:station:wmo:42873:2,2021-11-01T20:04:00Z,28.1860,-89.1790,10.6,28.5,11111222
Shell,ioos:station:wmo:42873:2,2021-11-01T20:14:00Z,28.1860,-89.1790,10.6,28.5,11111222
Shell,ioos:station:wmo:42873:2,2021-11-01T20:24:00Z,28.1860,-89.1790,10.5,28.5,11111222
Shell,ioos:station:wmo:42873:2,2021-11-01T20:34:00Z,28.1860,-89.1790,10.5,28.5,11111222
Shell,ioos:station:wmo:42873:2,2021-11-01T20:44:00Z,28.1860,-89.1790,10.4,28.5,11111222
Shell,ioos:station:wmo:42873:2,2021-11-01T20:54:00Z,28.1860,-89.1790,10.4,28.6,11111222
Shell,ioos:station:wmo:42873:2,2021-11-01T21:04:00Z,28.1860,-89.1790,10.4,28.6,11111222
Shell,ioos:station:wmo:42873:2,2021-11-01T21:14:00Z,28.1860,-89.1790,10.5,28.6,11111222
Shell,ioos:station:wmo:42873:2,2021-11-01T21:24:00Z,28.1860,-89.1790,10.5,28.6,11111222
Shell,ioos:station:wmo:42873:2,2021-11-01T21:34:00Z,69.0262,-115.6300,10.5,28.6,11111222
Shell,ioos:station:wmo:42873:2,2021-11-01T21:44:00Z,28.1860,-89.1790,10.5,28.6,11111222
Shell,ioos:station:wmo:42873:2,2021-11-01T21:54:00Z,28.1860,-89.1790,10.5,28.6,11111222
Shell,ioos:station:wmo:42873:2,2021-11-01T22:04:00Z,28.1860,-89.1790,10.5,28.6,11111222
Shell,ioos:station:wmo:42873:2,2021-11-01T22:14:00Z,28.1860,-89.1790,10.5,28.6,11111222
Shell,ioos:station:wmo:42873:2,2021-11-01T22:24:00Z,28.1860,-89.1790,10.5,28.6,11111222
Shell,ioos:station:wmo:42873:2,2021-11-01T22:34:00Z,28.1860,-89.1790,10.6,28.6,11111222
Shell,ioos:station:wmo:42873:2,2021-11-01T22:44:00Z,28.1860,-89.1790,10.6,28.6,11111222
Shell,ioos:station:wmo:42873:2,2021-11-01T22:55:00Z,28.1860,-89.1790,10.6,28.6,11111222
Shell,ioos:station:wmo:42873:2,2021-11-01T23:05:00Z,28.1860,-89.1790,10.6,28.6,11111222
Shell,ioos:station:wmo:42873:2,2021-11-01T23:15:00Z,28.1860,-89.1790,10.5,28.6,11111222
Shell,ioos:station:wmo:42873:2,2021-11-01T23:25:00Z,28.1860,-89.1790,10.6,28.6,11111222
Shell,ioos:station:wmo:42873:2,2021-11-01T23:35:00Z,28.1860,-89.1790,10.6,28.6,11111222
Shell,ioos:station:wmo:42873:2,2021-11-01T23:45:00Z,28.1860,-89.1790,10.6,28.6,11111222
Shell,ioos:station:wmo:42873:2,2021-11-01T23:55:00Z,28.1860,-89.1790,10.6,28.6,11111222
Shell,ioos:station:wmo:42873:2,2021-11-02T00:05:00Z,28.1860,-89.1790,10.7,28.6,11111222
Shell,ioos:station:wmo:42873:2,2021-11-02T00:15:00Z,28.1860,-89.1790,10.7,28.6,11111222
Shell,ioos:station:wmo:42873:2,2021-11-02T00:25:00Z,28.1860,-89.1790,10.6,28.6,11111222
Shell,ioos:station:wmo:42873:2,2021-11-02T00:35:00Z,28.1860,-89.1790,10.7,28.6,11111222
Shell,ioos:station:wmo:42873:2,2021-11-02T00:45:00Z,28.1860,-89.1790,10.6,28.6,11111222
Shell,ioos:station:wmo:42873:2,2021-11-02T00:55:00Z,28.1860,-89.1790,10.6,28.6,11111222
Shell,ioos:station:wmo:42873:2,2021-11-02T01:05:00Z,28.1860,-89.1790,10.7,28.6,11111222
Shell,ioos:station:wmo:42873:2,2021-11-02T01:15:00Z,28.1860,-89.1790,10.7,28.6,11111222
Shell,ioos:station:wmo:42873:2,2021-11-02T01:25:00Z,28.1860,-89.1790,10.7,28.6,11111222
Shell,ioos:station:wmo:42873:2,2021-11-02T01:35:00Z,28.1860,-89.1790,10.8,28.6,11111222
Shell,ioos:station:wmo:42873:2,2021-11-02T01:45:00Z,28.1860,-89.1790,10.8,28.6,11111222
Shell,ioos:station:wmo:42873:2,2021-11-02T01:55:00Z,28.1860,-89.1790,10.8,28.6,11111222
Shell,ioos:station:wmo:42873:2,2021-11-02T02:05:00Z,28.1860,-89.1790,10.8,28.6,11111222
Shell,ioos:station:wmo:42873:2,2021-11-02T02:15:00Z,28.1860,-89.1790,10.8,28.6,11111222
Shell,ioos:station:wmo:42873:2,2021-11-02T02:25:00Z,28.1860,-89.1790,10.8,28.6,11111222
Shell,ioos:station:wmo:42873:2,2021-11-02T02:35:00Z,28.1860,-89.1790,10.8,28.6,11111222
Shell,ioos:station:wmo:42873:2,2021-11-02T02:45:00Z,28.1860,-89.1790,10.8,28.6,11111222
Shell,ioos:station:wmo:42873:2,2021-11-02T02:55:00Z,28.1860,-89.1790,10.8,28.6,11111222
Shell,ioos:station:wmo:42873:2,2021-11-02T03:05:00Z,28.1860,-89.1790,10.8,28.6,11111222
Shell,ioos:station:wmo:42873:2,2021-11-02T03:15:00Z,28.1860,-89.1790,10.8,28.6,11111222
Shell,ioos:station:wmo:42873:2,2021-11-02T03:25:00Z,28.1860,-89.1790,10.8,28.6,11111222
Shell,ioos:station:wmo:42873:2,2021-11-02T03:35:00Z,28.1860,-89.1790,10.9,28.6,11111222
Shell,ioos:station:wmo:42873:2,2021-11-02T03:45:00Z,28.1860,-89.1790,10.9,28.6,11111222
Shell,ioos:station:wmo:42873:2,2021-11-02T03:55:00Z,28.1860,-89.1790,10.8,28.6,11111222
Shell,ioos:station:wmo:42873:2,2021-11-02T04:05:00Z,28.1860,-89.1790,10.8,28.6,11111222
Shell,ioos:station:wmo:42873:2,2021-11-02T04:15:00Z,28.1860,-89.1790,10.8,28.6,11111222
Shell,ioos:station:wmo:42873:2,2021-11-02T04:25:00Z,28.1860,-89.1790,10.9,28.6,11111222
Shell,ioos:station:wmo:42873:2,2021-11-02T04:35:00Z,28.1860,-89.1790,10.8,28.6,11111222
Shell,ioos:station:wmo:42873:2,2021-11-02T04:45:00Z,28.1860,-89.1790,10.8,28.6,11111222
Shell,ioos:station:wmo:42873:2,2021-11-02T04:55:00Z,28.1860,-89.1790,10.8,28.6,11111222
Shell,ioos:station:wmo:42873:2,2021-11-02T05:05:00Z,28.1860,-89.1790,10.8,28.6,11111222
Shell,ioos:station:wmo:42873:2,2021-11-02T05:15:00Z,28.1860,-89.1790,10.8,28.6,11111222
Shell,ioos:station:wmo:42873:2,2021-11-02T05:25:00Z,28.1860,-89.1790,10.8,28.6,11111222
Shell,ioos:station:wmo:42873:2,2021-11-02T05:35:00Z,28.1860,-89.1790,10.8,28.6,11111222
Shell,ioos:station:wmo:42873:2,2021-11-02T05:45:00Z,28.1860,-89.1790,10.9,28.6,11111222
Shell,ioos:station:wmo:42873:2,2021-11-02T05:55:00Z,28.1860,-89.1790,10.9,28.6,11111222
Shell,ioos:station:wmo:42873:2,2021-11-02T06:05:00Z,28.1860,-89.1790,10.9,28.6,11111222
Shell,ioos:station:wmo:42873:2,2021-11-02T06:16:00Z,28.1860,-89.1790,10.9,28.6,11111222
Shell,ioos:station:wmo:42873:2,2021-11-02T06:26:00Z,28.1860,-89.1790,10.8,28.5,11111222
Shell,ioos:station:wmo:42873:2,2021-11-02T06:36:00Z,28.1860,-89.1790,10.9,28.5,11111222
Shell,ioos:station:wmo:42873:2,2021-11-02T06:46:00Z,28.1860,-89.1790,10.9,28.5,11111222
Shell,ioos:station:wmo:42873:2,2021-11-02T06:56:00Z,28.1860,-89.1790,10.9,28.5,11111222
Shell,ioos:station:wmo:42873:2,2021-11-02T07:06:00Z,28.1860,-89.1790,10.9,28.5,11111222
Shell,ioos:station:wmo:42873:2,2021-11-02T07:16:00Z,28.1860,-89.1790,10.8,28.5,11111222
Shell,ioos:station:wmo:42873:2,2021-11-02T07:26:00Z,28.1860,-89.1790,10.7,28.5,11111222
Shell,ioos:station:wmo:42873:2,2021-11-02T07:36:00Z,28.1860,-89.1790,10.8,28.5,11111222
Shell,ioos:station:wmo:42873:2,2021-11-02T07:46:00Z,28.1860,-89.1790,10.8,28.5,11111222
Shell,ioos:station:wmo:42873:2,2021-11-02T07:56:00Z,28.1860,-89.1790,10.8,28.5,11111222
Shell,ioos:station:wmo:42873:2,2021-11-02T08:06:00Z,28.1860,-89.1790,10.8,28.5,11111222
Shell,ioos:station:wmo:42873:2,2021-11-02T08:16:00Z,28.1860,-89.1790,10.9,28.5,11111222
Shell,ioos:station:wmo:42873:2,2021-11-02T08:26:00Z,28.1860,-89.1790,10.9,28.5,11111222
Shell,ioos:station:wmo:42873:2,2021-11-02T08:36:00Z,28.1860,-89.1790,10.9,28.5,11111222
Shell,ioos:station:wmo:42873:2,2021-11-02T08:46:00Z,28.1860,-89.1790,10.9,28.5,11111222
Shell,ioos:station:wmo:42873:2,2021-11-02T08:56:00Z,28.1860,-89.1790,10.9,28.5,11111222
Shell,ioos:station:wmo:42873:2,2021-11-02T09:06:00Z,28.1860,-89.1790,10.9,28.6,11111222
Shell,ioos:station:wmo:42873:2,2021-11-02T09:16:00Z,28.1860,-89.1790,10.9,28.6,11111222
Shell,ioos:station:wmo:42873:2,2021-11-02T09:26:00Z,28.1860,-89.1790,11.0,28.6,11111222
Shell,ioos:station:wmo:42873:2,2021-11-02T09:36:00Z,28.1860,-89.1790,11.0,28.6,11111222
Shell,ioos:station:wmo:42873:2,2021-11-02T09:46:00Z,28.1860,-89.1790,11.0,28.6,11111222
Shell,ioos:station:wmo:42873:2,2021-11-02T09:56:00Z,28.1860,-89.1790,10.9,28.6,11111222
Shell,ioos:station:wmo:42873:2,2021-11-02T10:06:00Z,28.1860,-89.1790,11.0,28.6,11111222
Shell,ioos:station:wmo:42873:2,2021-11-02T10:16:00Z,28.1860,-89.1790,10.9,28.6,11111222
Shell,ioos:station:wmo:42873:2,2021-11-02T10:26:00Z,28.1860,-89.1790,11.0,28.6,11111222
Shell,ioos:station:wmo:42873:2,2021-11-02T10:36:00Z,28.1860,-89.1790,10.9,28.6,11111222
Shell,ioos:station:wmo:42873:2,2021-11-02T10:46:00Z,28.1860,-89.1790,10.9,28.6,11111222
Shell,ioos:station:wmo:42873:2,2021-11-02T10:56:00Z,28.1860,-89.1790,10.9,28.6,11111222
Shell,ioos:station:wmo:42873:2,2021-11-02T11:06:00Z,28.1860,-89.1790,11.0,28.6,11111222
Shell,ioos:station:wmo:42873:2,2021-11-02T11:16:00Z,28.1860,-89.1790,11.0,28.6,11111222
Shell,ioos:station:wmo:42873:2,2021-11-02T11:26:00Z,28.1860,-89.1790,11.0,28.6,11111222
Shell,ioos:station:wmo:42873:2,2021-11-02T11:36:00Z,28.1860,-89.1790,11.0,28.6,11111222
Shell,ioos:station:wmo:42873:2,2021-11-02T11:46:00Z,28.1860,-89.1790,11.0,28.6,11111222
Shell,ioos:station:wmo:42873:2,2021-11-02T11:56:00Z,28.1860,-89.1790,11.0,28.6,11111222
Shell,ioos:station:wmo:42873:2,2021-11-02T12:06:00Z,28.1860,-89.1790,11.0,28.6,11111222
Shell,ioos:station:wmo:42873:2,2021-11-02T12:16:00Z,28.1860,-89.1790,11.0,28.6,11111222
Shell,ioos:station:wmo:42873:2,2021-11-02T12:26:00Z,28.1860,-89.1790,11.0,28.6,11111222
Shell,ioos:station:wmo:42873:2,2021-11-02T12:36:00Z,28.1860,-89.1790,11.0,28.6,11111222
Shell,ioos:station:wmo:42873:2,2021-11-02T12:46:00Z,28.1860,-89.1790,11.0,28.6,11111222
Shell,ioos:station:wmo:42873:2,2021-11-02T12:56:00Z,28.1860,-89.1790,11.0,28.6,11111222
Shell,ioos:station:wmo:42873:2,2021-11-02T13:06:00Z,28.1860,-89.1790,11.0,28.6,11111222
Shell,ioos:station:wmo:42873:2,2021-11-02T13:16:00Z,28.1860,-89.1790,11.0,28.6,11111222
Shell,ioos:station:wmo:42873:2,2021-11-02T13:26:00Z,28.1860,-89.1790,10.9,28.6,11111222
Shell,ioos:station:wmo:42873:2,2021-11-02T13:37:00Z,28.1860,-89.1790,11.0,28.6,11111222
Shell,ioos:station:wmo:42873:2,2021-11-02T13:47:00Z,28.1860,-89.1790,11.0,28.6,11111222
Shell,ioos:station:wmo:42873:2,2021-11-02T13:57:00Z,28.1860,-89.1790,11.0,28.6,11111222
Shell,ioos:station:wmo:42873:2,2021-11-02T14:07:00Z,28.1860,-89.1790,11.0,28.6,11111222
Shell,ioos:station:wmo:42873:2,2021-11-02T14:17:00Z,28.1860,-89.1790,11.0,28.6,11111222
Shell,ioos:station:wmo:42873:2,2021-11-02T14:27:00Z,28.1860,-89.1790,11.0,28.6,11111222
Shell,ioos:station:wmo:42873:2,2021-11-02T14:37:00Z,28.1860,-89.1790,11.0,28.7,11111222
Shell,ioos:station:wmo:42873:2,2021-11-02T14:47:00Z,28.1860,-89.1790,10.9,28.7,11111222
Shell,ioos:station:wmo:42873:2,2021-11-02T14:57:00Z,28.1860,-89.1790,10.9,28.7,11111222
Shell,ioos:station:wmo:42873:2,2021-11-02T15:07:00Z,28.1860,-89.1790,10.9,28.7,11111222
Shell,ioos:station:wmo:42873:2,2021-11-02T15:17:00Z,28.1860,-89.1790,11.0,28.7,11111222
Shell,ioos:station:wmo:42873:2,2021-11-02T15:27:00Z,28.1860,-89.1790,10.9,28.7,11111222
Shell,ioos:station:wmo:42873:2,2021-11-02T15:37:00Z,28.1860,-89.1790,10.9,28.7,11111222
Shell,ioos:station:wmo:42873:2,2021-11-02T15:47:00Z,28.1860,-89.1790,11.0,28.7,11111222
Shell,ioos:station:wmo:42873:2,2021-11-02T15:57:00Z,28.1860,-89.1790,10.9,28.7,11111222
Shell,ioos:station:wmo:42873:2,2021-11-02T16:07:00Z,28.1860,-89.1790,11.0,28.7,11111222
Shell,ioos:station:wmo:42873:2,2021-11-02T16:17:00Z,28.1860,-89.1790,11.0,28.7,11111222
Shell,ioos:station:wmo:42873:2,2021-11-02T16:27:00Z,28.1860,-89.1790,11.0,28.7,11111222
Shell,ioos:station:wmo:42873:2,2021-11-02T16:37:00Z,28.1860,-89.1790,11.0,28.7,11111222
Shell,ioos:station:wmo:42873:2,2021-11-02T16:47:00Z,28.1860,-89.1790,11.0,28.7,11111222
Shell,ioos:station:wmo:42873:2,2021-11-02T16:57:00Z,28.1860,-89.1790,11.0,28.7,11111222
Shell,ioos:station:wmo:42873:2,2021-11-02T17:07:00Z,28.1860,-89.1790,11.0,28.7,11111222
Shell,ioos:station:wmo:42873:2,2021-11-02T17:17:00Z,28.1860,-89.1790,11.0,28.7,11111222
Shell,ioos:station:wmo:42873:2,2021-11-02T17:27:00Z,28.1860,-89.1790,10.9,28.7,11111222
Shell,ioos:station:wmo:42873:2,2021-11-02T17:37:00Z,28.1860,-89.1790,10.9,28.6,11111222
Shell,ioos:station:wmo:42873:2,2021-11-02T17:47:00Z,28.1860,-89.1790,10.9,28.6,11111222
Shell,ioos:station:wmo:42873:2,2021-11-02T17:57:00Z,28.1860,-89.1790,10.9,28.6,11111222
Shell,ioos:station:wmo:42873:2,2021-11-02T18:07:00Z,28.1860,-89.1790,10.9,28.6,11111222
Shell,ioos:station:wmo:42873:2,2021-11-02T18:17:00Z,28.1860,-89.1790,10.9,28.6,11111222
Shell,ioos:station:wmo:42873:2,2021-11-02T18:27:00Z,28.1860,-89.1790,10.9,28.6,11111222
Shell,ioos:station:wmo:42873:2,2021-11-02T18:37:00Z,28.1860,-89.1790,10.9,28.6,11111222
Shell,ioos:station:wmo:42873:2,2021-11-02T18:47:00Z,28.1860,-89.1790,10.9,28.6,11111222
Shell,ioos:station:wmo:42873:2,2021-11-02T18:57:00Z,28.1860,-89.1790,10.9,28.6,11111222
Shell,ioos:station:wmo:42873:2,2021-11-02T19:07:00Z,28.1860,-89.1790,11.0,28.6,11111222
Shell,ioos:station:wmo:42873:2,2021-11-02T19:17:00Z,28.1860,-89.1790,10.9,28.6,11111222
Shell,ioos:station:wmo:42873:2,2021-11-02T19:27:00Z,28.1860,-89.1790,10.9,28.6,11111222
Shell,ioos:station:wmo:42873:2,2021-11-02T19:37:00Z,28.1860,-89.1790,10.9,28.6,11111222
Shell,ioos:station:wmo:42873:2,2021-11-02T19:47:00Z,28.1860,-89.1790,10.9,28.6,11111222
Shell,ioos:station:wmo:42873:2,2021-11-02T19:57:00Z,28.1860,-89.1790,10.9,28.6,11111222
Shell,ioos:station:wmo:42873:2,2021-11-02T20:07:00Z,28.1860,-89.1790,10.9,28.6,11111222
Shell,ioos:station:wmo:42873:2,2021-11-02T20:17:00Z,28.1860,-89.1790,10.8,28.6,11111222
Shell,ioos:station:wmo:42873:2,2021-11-02T20:27:00Z,28.1860,-89.1790,10.8,28.6,11111222
Shell,ioos:station:wmo:42873:2,2021-11-02T20:37:00Z,28.1860,-89.1790,10.8,28.6,11111222
Shell,ioos:station:wmo:42873:2,2021-11-02T20:47:00Z,28.1860,-89.1790,10.8,28.6,11111222